NIMBUS 2 DEB, 37893

Orbit data source: Space-Track

NIMBUS 2 DEB, 37893 is space debris in SSO originally from a launch on Sun, 15 May 1966 UTC launched from the Air Force Western Test Range (AFWTR). Debris objects in space refer to the collection of defunct objects orbiting the Earth. Examples of debris include non-operational satellites, rocket bodies, and fragments generated from explosions, collisions, or faulty payload assembly.

Loading next visibility...
Identifier
37893, 1966-040AY
Orbit
SSO
Country
Flag of USUS
Related business
Manufacturer
Unknown
Mission
Spacecraft
Bus & Motor
Unknown
Mass
Unknown
Launch date (UTC)
1966-05-15 (60 years ago)
Launch vehicle
Unknown
Launch site
Air Force Western Test Range (AFWTR)
Object type
Payload
Rocket body
Debris
Shape & HBR
Unknown shape, 0.1 m
Radar Cross Section
Medium (>0.1 m² and <1 m²)

Expand to show TLE details & history
Last TLE update: 2 days ago

TLE from 2 days ago
0 NIMBUS 2 DEB
1 37893U 66040AY  26171.42731647  .00001297  00000-0  21112-2 0  9995
2 37893 100.5023 145.7573 0056904 153.8309 358.5278 13.49487045684975
Epoch: 2026-06-20T10:15Z
TLE epoch observation values (Epoch: 2026-06-20T10:15:20.143Z)
Latitude
27.19598°
Longitude
-91.28099°
Altitude
1,034.929 km
Speed
7.358 km/s
True Right ascension
22h 04m 46s
True Declination
27° 03' 42"
Sunlit
Object was in daylight at epoch
Visualization orbit readout
Latitude
Unknown
Longitude
Unknown
Altitude
Unknown
Speed
Unknown
Apparent Right ascension
Unknown
Apparent Declination
Unknown
Sunlit
N/A
Visualization observer readout
Local Sidereal Time
23:20:14
Azimuth
Unknown
Elevation
Unknown
Doppler factor
Unknown
Orbital elements
Apogee altitude
1,113.883 km
Perigee altitude
1,029.1 km
Semi-major axis
7,449.628 km
Eccentricity
0.00569
Inclination
100.5023°
RAAN
145.7573°
Arg. of periapsis
153.8309°
True anomaly
358.51093°
Mean anomaly
358.5278°
Eccentric anomaly
358.51938°
Mean motion
3.37552 °/min
Orbital period
106.65 mins
BSTAR
0.0021112
Loading maneuver chart data...
Computing Atmospheric mass density...
Loading historical data...
Loading historical data...
Loading historical data...
Loading historical data...
Loading historical data...
Loading historical data...
Loading historical data...

Documentation

Showing up to 5 results
|